This is the latest recevied weather packets stored in our database for station/object W4FXD. If no packets are shown the sender has not sent any weather packets the latest 10 day(s).
| Time | Temp. | Humidity | Pressure | Rain* | Wind** | Luminosity | Snow |
|---|---|---|---|---|---|---|---|
| 1778075985 | 16.67° C | 99% | 1012.8 hPa | 3.05 mm | - | 22 W/m² | - |
| 1778075683 | 16.67° C | 99% | 1012.8 hPa | 3.05 mm | - | 31 W/m² | - |
| 1778075379 | 16.67° C | 99% | 1012.3 hPa | 3.05 mm | - | 35 W/m² | - |
| 1778075075 | 16.67° C | 99% | 1012.8 hPa | 4.83 mm | - | 35 W/m² | - |
| 1778074772 | 16.67° C | 99% | 1012.3 hPa | 4.83 mm | - | 39 W/m² | - |
| 1778074469 | 16.67° C | 99% | 1012.1 hPa | 1.27 mm | - | 33 W/m² | - |
| 1778074166 | 16.67° C | 99% | 1011.9 hPa | 1.78 mm | - | 35 W/m² | - |
| 1778073863 | 16.67° C | 99% | 1011.9 hPa | 3.05 mm | - | 39 W/m² | - |
| 1778073560 | 16.67° C | 99% | 1012.1 hPa | 3.05 mm | - | 17 W/m² | - |
| 1778073257 | 16.67° C | 99% | 1012 hPa | 1.78 mm | - | 25 W/m² | - |
| 1778072954 | 16.67° C | 99% | 1012.1 hPa | 1.78 mm | - | 29 W/m² | - |
| 1778072650 | 16.67° C | 99% | 1011.9 hPa | 4.32 mm | - | 32 W/m² | - |
| 1778072348 | 16.67° C | 99% | 1012.1 hPa | 7.11 mm | - | 21 W/m² | - |
| 1778072046 | 16.67° C | 99% | 1012.2 hPa | 7.11 mm | - | 12 W/m² | - |
| 1778071744 | 16.67° C | 99% | 1012.4 hPa | 6.6 mm | - | 7 W/m² | - |
| 1778071441 | 16.67° C | 99% | 1012.4 hPa | 6.6 mm | - | 7 W/m² | - |
| 1778071139 | 16.67° C | 99% | 1012.2 hPa | 4.32 mm | - | 8 W/m² | - |
| 1778070837 | 16.67° C | 99% | 1012 hPa | 1.27 mm | - | 12 W/m² | - |
| 1778070534 | 16.67° C | 99% | 1012.1 hPa | 1.27 mm | - | 12 W/m² | - |
| 1778070231 | 16.67° C | 99% | 1012 hPa | 3.05 mm | - | 15 W/m² | - |
| 1778069929 | 17.22° C | 98% | 1011.8 hPa | 3.05 mm | - | 14 W/m² | - |
| 1778069626 | 17.22° C | 98% | 1012.1 hPa | 3.05 mm | - | 15 W/m² | - |
| 1778069323 | 17.22° C | 97% | 1012.4 hPa | 3.05 mm | - | 9 W/m² | - |
| 1778069020 | 17.22° C | 97% | 1012.6 hPa | 3.05 mm | - | 13 W/m² | - |
| 1778068717 | 17.22° C | 96% | 1012.3 hPa | 4.32 mm | - | 6 W/m² | - |
* Rain latest hour (hover to see other rain measurements)
** Current wind speed in m/s (hover to see current wind gust speed)